Meteógrafos Informações Meteorológicas em tempo real
Aeroporto de Congonhas
06-04-2020 07:56

Temperatura atual: 19 graus 66 F    Umidade relativa: 82 %
Velocidade do vento: 05 nós 9 Km/h    Direção: 010 graus N
Ajuste do altímetro ..: 1020 HPA
Visibilidade: Ótima    Tempo presente: Poucas nuvens esparsas

Observação
Nuvens esparsas a 800 Pés.
Data Hora BRTTempo°CUmidadePressãoVentoVisib.
06/04 - 06:56   Céu Encoberto 18° 88% 1019 Norte-nordeste/9 km/h 9000
06/04 - 05:56   Parcialmente Nublado 18° 88% 1019 Este-nordeste/9 km/h 9000
06/04 - 04:56   Parcialmente Nublado 18° 88% 1019 Este-nordeste/9 km/h 9999
06/04 - 03:56   Parcialmente Nublado 18° 88% 1019 Nordeste/12 km/h OK
06/04 - 02:55   Parcialmente Nublado 18° 88% 1019 Este-nordeste/9 km/h 9999
06/04 - 01:55   Parcialmente Nublado 18° 88% 1019 Este-nordeste/9 km/h 9999
06/04 - 00:56   Muitas Nuvens 18° 82% 1019 /3 km/h OK
05/04 - 23:56   Céu Limpo 18° 82% 1020 Leste/5 km/h CAVO
05/04 - 22:55   Céu Limpo 18° 82% 1020 Este-sudeste/5 km/h CAVO
05/04 - 21:56   Céu Limpo 18° 82% 1020 Este-sudeste/5 km/h OK
05/04 - 20:55   Não Disponível 18° 82% 1020 Sudeste/7 km/h OK
05/04 - 19:56   Poucas nuvens esparsas 18° 82% 1020 Sul/16 km/h OK
05/04 - 18:56   Céu Limpo 18° 82% 1019 Sul-sudeste/14 km/h OK
05/04 - 17:56   Céu Limpo 20° 73% 1018 Sul-sudeste/18 km/h OK
05/04 - 16:55   Céu Limpo 23° 64% 1018 Sudeste/19 km/h OK
05/04 - 15:56   Céu Limpo 25° 53% 1018 Sudeste/18 km/h CAVO
05/04 - 14:56   Céu Limpo 27° 36% 1018 /7 km/h OK
05/04 - 13:56   Céu Limpo 26° 39% 1018 /5 km/h OK
05/04 - 12:56   Céu Limpo 25° 44% 1019 Nordeste/5 km/h CAVO
05/04 - 11:56   Céu Limpo 24° 50% 1020 /5 km/h OK
05/04 - 10:55   Céu Limpo 22° 56% 1021 /12 km/h OK
05/04 - 09:56   Céu Limpo 20° 68% 1021 Leste/12 km/h CAVO
05/04 - 08:55   Poucas nuvens esparsas 19° 77% 1021 Leste/12 km/h 9999
05/04 - 07:56   Parcialmente Nublado 18° 82% 1020 Leste/10 km/h 9999

Termo de Uso  |   Links Úteis  |   Imprensa  |  Anuncie  |  Fale Conosco  |  Versão Celular  |   Política de Privacidade

Apolo11.com - Todos os direitos reservados - 2000 - 2020

"O brasileiro só é otimista entre o Natal e o Carnaval" - M. Henrique Simonsen -